Volver al catálogo

STARLINK-31425

ActivoComunicacionesVLEO
NORAD 59253·PAYLOAD·🇺🇸 United States

Lanzado Mar 16, 2024 desde Cape Canaveral Space Force Station

Loading…

Próximos Pases (próximas 24 horas)

TLE

ActualizadoSource: CelesTrak SupGP

Época: Sep 14, 2026, 20:56 UTC

1 59253C 24049Y   26257.87270833 -.00035383  00000+0 -12815-2 0  2572
2 59253  43.0007 154.9475 0001264 264.3010  11.5231 15.27597738    12

Sigue STARLINK-31425 en tiempo real con AllMySat

Download on the App Store